Simultaneous Nadir Overpasses (SNOs) Predictions

Prediction of SNOs between AQUA and NPP Satellite Orbit:

Table of predicted SNOs for the next 14.0 days since TLE Epoch: 5/18/2018
Index Date (AQUA) Time (AQUA) Lat,Lon (AQUA) SZA (AQUA ) Date (NPP) Time (NPP) Lat,Lon (NPP) SZA (NPP ) Distance(km) Time Diff (sec)
1 05/19/2018 14:05:56 75.21,-154.59 78.52 05/19/2018 14:04:50 75.21,-154.59 78.57 0.22 66
2 05/19/2018 14:54:57 -76.48, 16.89 102.97 05/19/2018 14:55:08 -76.49, 16.98 103.00 2.29 11
3 05/22/2018 06:22:13 75.73, -37.22 77.39 05/22/2018 06:21:34 75.74, -37.18 77.41 1.06 39
4 05/22/2018 07:11:25 -76.47, 132.73 103.48 05/22/2018 07:12:04 -76.46, 132.63 103.49 2.74 39
5 05/24/2018 22:38:31 76.20, 80.09 76.37 05/24/2018 22:38:19 76.21, 80.18 76.35 2.72 12
6 05/24/2018 23:27:45 -76.83,-110.14 104.40 05/24/2018 23:28:51 -76.82,-110.20 104.44 1.45 66
7 05/27/2018 14:05:54 -75.15, 25.26 102.86 05/27/2018 14:04:53 -75.14, 25.22 102.80 1.16 61
8 05/27/2018 14:54:57 76.26,-163.82 75.85 05/27/2018 14:55:13 76.26,-163.86 75.85 1.17 16
9 05/30/2018 06:22:10 -75.66, 142.58 103.84 05/30/2018 06:21:36 -75.66, 142.59 103.81 0.37 34




NCC Satellite Simultaneous Nadir Overpasses (SNOs) Prediction Service
